Location: Austin
(30.3000°N, 97.7500°W)
Time: 01:54:42
(UTC-06:00)

Cosmos 2322 Rocket - Pass Details

Date: 20 November 2023
Orbit: 831 x 852 km, 71.0° (Epoch: 04 December)

Event Time Altitude Azimuth Distance (km) Brightness Sun altitude
Rises 17:53:00 0° 329° (NNW) 3,419 5.5 -5.0°
Reaches altitude 10° 17:55:38 10° 320° (NW) 2,481 4.9 -5.5°
Maximum altitude 18:00:44 35° 257° (WSW) 1,353 4.2 -6.6°
Drops below altitude 10° 18:05:48 10° 193° (SSW) 2,465 5.1 -7.6°
Sets 18:08:26 0° 184° (S) 3,395 5.7 -8.1°
